User: anonymous   Login
Location: Unspecified
(0.0000°N, 0.0000°E)
Time: 07:46:19
(UTC+00:00)
Language:

STARLINK-30984 - Orbit

View from above orbital plane
View from above orbital plane
View from above satellite
View from above satellite

Ground track
Ground track

The orbit is defined by the following mean orbital elements,

1 58480U          26145.60508873 +.00000000 +00000-0 +89834-4 0 00009
2 58480  43.0024 348.9039 0000993 271.3267  88.7471 15.27579134    04
Epoch (UTC): 25 May 2026 14:31:19
Eccentricity: 0.0000993
inclination: 43.0024°
perigee height: 482 km
apogee height: 484 km
right ascension of ascending node: 348.9039°
argument of perigee: 271.3267°
revolutions per day: 15.27579134
mean anomaly at epoch: 88.7471°

The dashed part of the orbit path shows where the satellite is in the earth's shadow,  

DLR